Location: *
(2.5500°S, 65.9667°W)
Time: 12:19:19
(UTC+00:00)

H-2A R/B - Pass Details

Date: 06 June 2022
Orbit: 526 x 647 km, 98.3° (Epoch: 02 July)

Event Time Altitude Azimuth Distance (km) Brightness Sun altitude
Exits shadow 00:10:32 10° 22° (NNE) 1,945 5.1 -25.8°
Drops below altitude 10° 00:10:35 10° 22° (NNE) 1,965 5.1 -25.9°
Sets 00:12:59 0° 9° (N) 2,844 6.1 -26.4°
